Location: Unspecified
(0.0000°N, 0.0000°E)
Time: 05:49:05
(UTC+00:00)

Tiros 1 - Pass Details

Date: 02 October 2020
Orbit: 630 x 663 km, 48.4° (Epoch: 28 October)

Event Time Altitude Azimuth Distance (km) Brightness Sun altitude
Rises 09:41:22 0° 210° (SSW) 2,912 10.4 57.8°
Reaches altitude 10° 09:43:44 10° 205° (SSW) 2,003 9.7 58.4°
Maximum altitude 09:48:13 52° 129° (SE) 782 9.4 59.5°
Drops below altitude 10° 09:52:42 10° 52° (NE) 2,006 10.1 60.6°
Sets 09:55:04 0° 47° (NE) 2,916 10.8 61.2°
